K5WNG Weather Reports


time (UTC)temp
C
wind
direction
speed
KPH
gust
KPH
rain 1hr
cm
rain 24hr
cm
rain mn
cm
humidity
%
barometer
mb
20260504223021 28 252 1.6 9.7 0.00 0.00 0.00 58 1009.3
20260504222521 28 142 1.6 6.4 0.00 0.00 0.00 59 1009.3
20260504222021 28 230 3.2 12.9 0.00 0.00 0.00 58 1009.4
20260504221518 28 117 1.6 8.0 0.00 0.00 0.00 58 1009.5
20260504221020 28 173 1.6 6.4 0.00 0.00 0.00 58 1009.5
20260504220518 28 144 1.6 6.4 0.00 0.00 0.00 57 1009.5
20260504220018 28 170 1.6 6.4 0.00 0.00 0.00 58 1009.6
20260504215521 28 137 1.6 4.8 0.00 0.00 0.00 58 1009.5
20260504215018 28 176 1.6 6.4 0.00 0.00 0.00 58 1009.5
20260504214518 28 214 1.6 4.8 0.00 0.00 0.00 59 1009.5
20260504214021 28 138 1.6 4.8 0.00 0.00 0.00 58 1009.5
20260504213518 28 129 1.6 6.4 0.00 0.00 0.00 58 1009.6
20260504213016 28 231 1.6 8.0 0.00 0.00 0.00 59 1009.8
20260504212519 28 250 3.2 6.4 0.00 0.00 0.00 59 1010.0
20260504212016 28 234 1.6 11.3 0.00 0.00 0.00 58 1010.1
20260504211516 28 128 1.6 6.4 0.00 0.00 0.00 58 1010.1
20260504211015 28 216 1.6 9.7 0.00 0.00 0.00 59 1010.2
20260504210516 28 162 1.6 8.0 0.00 0.00 0.00 59 1010.3
20260504210016 28 108 1.6 9.7 0.00 0.00 0.00 60 1010.4
20260504205516 27 174 1.6 11.3 0.00 0.00 0.00 60 1010.4
20260504205019 27 142 1.6 6.4 0.00 0.00 0.00 61 1010.6
20260504204516 27 124 1.6 4.8 0.00 0.00 0.00 61 1010.6
20260504204016 27 163 1.6 4.8 0.00 0.00 0.00 60 1010.6
20260504203520 28 198 1.6 4.8 0.00 0.00 0.00 60 1010.8
20260504203016 28 132 1.6 3.2 0.00 0.00 0.00 60 1010.9
20260504202516 28 203 1.6 8.0 0.00 0.00 0.00 59 1011.1
20260504202016 28 242 1.6 8.0 0.00 0.00 0.00 60 1011.1
20260504201519 28 169 1.6 4.8 0.00 0.00 0.00 59 1011.3
20260504201020 28 148 1.6 6.4 0.00 0.00 0.00 59 1011.3
20260504200517 28 158 1.6 8.0 0.00 0.00 0.00 59 1011.4
20260504200017 28 153 3.2 8.0 0.00 0.00 0.00 59 1011.4
20260504195520 28 126 1.6 6.4 0.00 0.00 0.00 58 1011.5
20260504195017 27 191 1.6 6.4 0.00 0.00 0.00 60 1011.6
20260504194517 27 160 1.6 6.4 0.00 0.00 0.00 60 1011.7
20260504194020 27 183 1.6 6.4 0.00 0.00 0.00 60 1011.8
20260504193517 27 233 1.6 8.0 0.00 0.00 0.00 60 1011.8
20260504193021 27 240 3.2 14.5 0.00 0.00 0.00 60 1011.8
20260504192517 27 239 1.6 11.3 0.00 0.00 0.00 62 1011.9
20260504192021 27 174 3.2 11.3 0.00 0.00 0.00 61 1011.9
20260504191522 27 196 3.2 11.3 0.00 0.00 0.00 61 1012.2
20260504191018 27 238 1.6 11.3 0.00 0.00 0.00 62 1012.2
20260504190517 27 199 1.6 8.0 0.00 0.00 0.00 62 1012.3
20260504190022 27 149 1.6 6.4 0.00 0.00 0.00 62 1012.3
20260504185520 27 166 1.6 8.0 0.00 0.00 0.00 61 1012.3
20260504185017 26 140 1.6 8.0 0.00 0.00 0.00 62 1012.3
20260504184517 26 246 1.6 6.4 0.00 0.00 0.00 62 1012.4
20260504184018 26 152 1.6 4.8 0.00 0.00 0.00 62 1012.4
20260504183518 26 164 1.6 6.4 0.00 0.00 0.00 64 1012.5
20260504183018 26 228 3.2 9.7 0.00 0.00 0.00 63 1012.7
20260504182518 26 223 3.2 9.7 0.00 0.00 0.00 62 1012.8
20260504182018 26 236 3.2 12.9 0.00 0.00 0.00 63 1013.0
20260504181521 26 213 3.2 11.3 0.00 0.00 0.00 63 1013.1
20260504181015 26 195 1.6 8.0 0.00 0.00 0.00 64 1013.0
20260504180516 26 235 3.2 9.7 0.00 0.00 0.00 63 1013.0
20260504180019 25 235 3.2 11.3 0.00 0.00 0.00 64 1013.0
20260504175518 25 192 1.6 6.4 0.00 0.00 0.00 66 1013.1
20260504175016 25 171 1.6 4.8 0.00 0.00 0.00 66 1013.2
20260504174515 25 175 1.6 6.4 0.00 0.00 0.00 65 1013.3
20260504174019 25 197 1.6 8.0 0.00 0.00 0.00 66 1013.5
20260504173516 24 240 1.6 4.8 0.00 0.00 0.00 67 1013.7
20260504173016 25 248 3.2 12.9 0.00 0.00 0.00 65 1013.8
20260504172516 24 232 1.6 9.7 0.00 0.00 0.00 66 1013.9
20260504172016 23 241 3.2 9.7 0.00 0.00 0.00 67 1014.0
20260504171516 23 249 3.2 11.3 0.00 0.00 0.00 68 1014.1
20260504171016 23 204 1.6 8.0 0.00 0.00 0.00 68 1014.1
20260504170516 23 226 3.2 12.9 0.00 0.00 0.00 68 1014.0
20260504151017 21 174 3.2 9.7 0.00 0.00 0.00 71 1014.6
20260504150515 21 233 3.2 11.3 0.00 0.00 0.00 71 1014.7
20260504141016 18 209 1.6 8.0 0.00 0.00 0.00 77 1014.7
20260504140516 18 211 3.2 8.0 0.00 0.00 0.00 77 1014.8
20260504130520 16 86 0.0 3.2 0.00 0.00 0.00 84 1014.8
20260504110516 15 87 1.6 3.2 0.00 0.00 0.00 86 1014.4
20260504100517 15 73 1.6 4.8 0.00 0.00 0.00 83 1014.5
20260504081515 16 80 1.6 4.8 0.00 0.00 0.00 79 1015.0
20260504081015 16 76 0.0 4.8 0.00 0.00 0.00 78 1015.1
20260504080516 16 85 1.6 3.2 0.00 0.00 0.00 78 1015.1
20260504050515 18 146 1.6 3.2 0.00 0.00 0.00 69 1017.0
20260504050015 18 117 0.0 3.2 0.00 0.00 0.00 68 1017.0
20260504045519 18 98 0.0 3.2 0.00 0.00 0.00 68 1017.0
20260504045015 18 117 1.6 3.2 0.00 0.00 0.00 67 1017.1
20260504044516 18 111 0.0 3.2 0.00 0.00 0.00 67 1017.1
20260504044019 18 120 1.6 8.0 0.00 0.00 0.00 67 1017.1
20260504043516 18 151 0.0 3.2 0.00 0.00 0.00 66 1017.2
20260504043016 18 118 0.0 1.6 0.00 0.00 0.00 65 1017.2
20260504042520 18 125 0.0 3.2 0.00 0.00 0.00 64 1017.2
20260504042016 18 132 0.0 1.6 0.00 0.00 0.00 63 1017.3
20260504041521 18 123 0.0 3.2 0.00 0.00 0.00 62 1017.3
20260504041020 18 145 0.0 3.2 0.00 0.00 0.00 62 1017.3
20260504040519 18 142 0.0 1.6 0.00 0.00 0.00 62 1017.3
20260504040016 17 115 1.6 3.2 0.00 0.00 0.00 62 1017.3
20260504035517 17 112 0.0 3.2 0.00 0.00 0.00 62 1017.3
20260504035016 17 106 0.0 3.2 0.00 0.00 0.00 63 1017.3
20260504034516 16 99 0.0 3.2 0.00 0.00 0.00 64 1017.2
20260504034016 17 60 0.0 1.6 0.00 0.00 0.00 65 1017.2
20260504033517 17 50 0.0 1.6 0.00 0.00 0.00 65 1017.2
20260504033017 17 93 0.0 1.6 0.00 0.00 0.00 64 1017.2
20260504032520 17 40 0.0 1.6 0.00 0.00 0.00 63 1017.1
20260504032017 17 95 0.0 1.6 0.00 0.00 0.00 63 1017.1
20260504031520 17 78 0.0 1.6 0.00 0.00 0.00 60 1017.2
20260504031017 17 96 0.0 1.6 0.00 0.00 0.00 60 1017.2
20260504030517 17 82 0.0 1.6 0.00 0.00 0.00 59 1017.2
20260504030017 17 67 0.0 1.6 0.00 0.00 0.00 59 1017.2
20260504025517 18 44 0.0 0.0 0.00 0.00 0.00 58 1017.1
20260504025017 18 98 0.0 1.6 0.00 0.00 0.00 57 1017.1
20260504024520 18 59 0.0 1.6 0.00 0.00 0.00 57 1017.2
20260504024017 18 120 0.0 1.6 0.00 0.00 0.00 56 1017.2
20260504023517 18 76 0.0 1.6 0.00 0.00 0.00 57 1017.0
20260504023018 18 124 0.0 1.6 0.00 0.00 0.00 57 1017.0
20260504022518 18 72 0.0 1.6 0.00 0.00 0.00 58 1017.0
20260504022021 18 117 0.0 1.6 0.00 0.00 0.00 57 1017.1
20260504021518 18 119 0.0 1.6 0.00 0.00 0.00 56 1017.1
20260504021021 19 99 0.0 1.6 0.00 0.00 0.00 55 1017.0
20260504020521 19 164 0.0 1.6 0.00 0.00 0.00 55 1017.1
20260504020018 20 143 0.0 1.6 0.00 0.00 0.00 54 1016.9
20260504015518 20 124 0.0 1.6 0.00 0.00 0.00 53 1016.7
20260504015020 20 193 0.0 3.2 0.00 0.00 0.00 53 1016.6
20260504014519 20 177 0.0 3.2 0.00 0.00 0.00 53 1016.5
20260504014016 20 173 0.0 1.6 0.00 0.00 0.00 52 1016.5
20260504013518 20 148 0.0 1.6 0.00 0.00 0.00 51 1016.5
20260504013016 21 179 0.0 1.6 0.00 0.00 0.00 50 1016.5
20260504012519 21 179 0.0 1.6 0.00 0.00 0.00 50 1016.5
20260504012020 21 164 0.0 1.6 0.00 0.00 0.00 49 1016.5
20260504011516 21 200 0.0 1.6 0.00 0.00 0.00 49 1016.5
20260504011016 21 171 0.0 3.2 0.00 0.00 0.00 49 1016.5
20260504010516 21 148 0.0 1.6 0.00 0.00 0.00 49 1016.5
20260504010016 21 164 0.0 1.6 0.00 0.00 0.00 48 1016.6
20260504005519 22 176 0.0 1.6 0.00 0.00 0.00 48 1016.5
20260504005017 22 169 0.0 1.6 0.00 0.00 0.00 47 1016.5
20260504004519 22 192 0.0 3.2 0.00 0.00 0.00 47 1016.5
20260504004019 22 188 0.0 3.2 0.00 0.00 0.00 46 1016.5
20260504003516 22 161 0.0 3.2 0.00 0.00 0.00 45 1016.5
20260504003016 23 204 0.0 3.2 0.00 0.00 0.00 45 1016.6
20260504002516 23 174 0.0 3.2 0.00 0.00 0.00 44 1016.7
20260504002017 23 174 1.6 3.2 0.00 0.00 0.00 45 1016.7
20260504001516 23 200 0.0 4.8 0.00 0.00 0.00 45 1016.8
20260504001020 23 164 0.0 4.8 0.00 0.00 0.00 44 1016.9
20260504000516 23 153 0.0 1.6 0.00 0.00 0.00 44 1017.0
20260504000020 23 140 1.6 4.8 0.00 0.00 0.00 44 1017.0
20260503235517 24 201 1.6 3.2 0.00 0.00 0.00 44 1017.1
20260503235017 25 190 1.6 4.8 0.00 0.00 0.00 44 1017.1
20260503234521 25 197 1.6 3.2 0.00 0.00 0.00 44 1017.1
20260503234020 25 197 1.6 6.4 0.00 0.00 0.00 43 1017.1
20260503233517 25 147 0.0 3.2 0.00 0.00 0.00 43 1017.1
20260503233018 25 159 1.6 4.8 0.00 0.00 0.00 42 1017.2
20260503232522 25 185 0.0 1.6 0.00 0.00 0.00 43 1017.2
20260503232017 25 155 1.6 3.2 0.00 0.00 0.00 42 1017.2
20260503231518 25 140 1.6 4.8 0.00 0.00 0.00 42 1017.2
20260503231018 25 170 0.0 3.2 0.00 0.00 0.00 41 1017.1
20260503230521 26 153 1.6 3.2 0.00 0.00 0.00 40 1017.0
20260503230018 27 163 1.6 4.8 0.00 0.00 0.00 40 1017.0
20260503225515 27 177 0.0 6.4 0.00 0.00 0.00 40 1017.1
20260503225021 28 213 1.6 3.2 0.00 0.00 0.00 39 1017.1
20260503224515 28 153 1.6 3.2 0.00 0.00 0.00 39 1017.1
20260503224015 28 59 1.6 4.8 0.00 0.00 0.00 38 1017.3
20260503223521 28 137 1.6 6.4 0.00 0.00 0.00 38 1017.4